NUSAT-5 (MARYAM) (43204 NORAD) Tracking and Keplerian Element Data

This shows tracking and keplerian element data for the satellite.

Feedback or suggestion? Click here.




ElementValue
Catalog43204
NameNUSAT-5 (MARYAM)
Epoch Orbit2937
Epoch Day228.90113155
Epoch Year2018
RAAN356.5883
Inclination97.3594
Eccentricity0.0016525
Argument of Perigee301.3767
Mean Anonmoly154.7491
Mean Motion15.23349532
Decay Rate6.93E-06
L11 43204U 18015K 18228.90113155 .00000693 00000-0 32072-4 0 9990
L22 43204 97.3594 356.5883 0016525 301.3767 154.7491 15.23349532 29375

Live tracking and technical data element details for NUSAT-5 (MARYAM) (NORAD 43204). NUSAT-5 (MARYAM) can be tracked NOW for your location showing map with azimuth and elevation plus other details from your city location.

Track the satellite on the map from your city or location and see movement details for azimuth, elevation, latitude, longitude, range, height, and movement on the map or in text.







IsCatalogInMostPopularTable: catalog: 43204, numindb: 79
Update: records affected: 1



GetName: 43204 NUSAT-5 (MARYAM)

Hit Count: updated at: Fri, 17 Aug 2018 13:19:56 GMT